Location: Newark
(47.4417°N, 1.1394°W)
Time: 22:01:36
(UTC+00:00)

Envisat - Pass Details

Date: 17 November 2019
Orbit: 764 x 766 km, 98.1° (Epoch: 14 December)

Event Time Altitude Azimuth Distance (km) Brightness Sun altitude
Rises 16:51:35 0° 131° (SE) 3,225 6.0 -4.6°
Reaches altitude 10° 16:54:10 10° 119° (ESE) 2,303 5.1 -5.0°
Maximum altitude 16:58:23 27° 63° (ENE) 1,443 3.9 -5.7°
Drops below altitude 10° 17:02:36 10° 7° (N) 2,315 5.2 -6.3°
Sets 17:05:12 0° 356° (N) 3,245 6.1 -6.7°
